"Sample Date","Sample Time","Sample Value","Units","Flow Rate","Sample Interval","Number Channels","Micron Size 0","Counts/Channel 0","Micron Size 1","Counts/Channel 1","Micron Size 2","Counts/Channel 2","Micron Size 3","Counts/Channel 3","Micron Size 4","Counts/Channel 4","Micron Size 5","Counts/Channel 5","Micron Size 6","Counts/Channel 6","Micron Size 7","Counts/Channel 7","Micron Size 8","Counts/Channel 8","Micron Size 9","Counts/Channel 9","Micron Size 10","Counts/Channel 10","Micron Size 11","Counts/Channel 11","Micron Size 12","Counts/Channel 12","Micron Size 13","Counts/Channel 13","Micron Size 14","Counts/Channel 14","Micron Size 15","Counts/Channel 15","Micron Size 16","Counts/Channel 16","Micron Size 17","Counts/Channel 17","Micron Size 18","Counts/Channel 18","Micron Size 19","Counts/Channel 19","Micron Size 20","Counts/Channel 20","Micron Size 21","Counts/Channel 21","Micron Size 22","Counts/Channel 22","Micron Size 23","Counts/Channel 23","Micron Size 24","Counts/Channel 24","Micron Size 25","Counts/Channel 25","Micron Size 26","Counts/Channel 26","Micron Size 27","Counts/Channel 27","Micron Size 28","Counts/Channel 28","Micron Size 29","Counts/Channel 29","Micron Size 30","Counts/Channel 30","Micron Size 31","Counts/Channel 31"
"04/01/08","18:00:00",18616.000,"cc",28346.732,6.00,6,0.100,17239.000,0.200,459.000,0.300,329.000,0.500,426.000,1.000,163.000,5.000,0
"04/01/08","18:00:06",18325.000,"cc",28284.557,6.00,6,0.100,16889.000,0.200,489.000,0.300,347.000,0.500,420.000,1.000,180.000,5.000,0
"04/01/08","18:00:12",18475.000,"cc",28351.805,6.00,6,0.100,17137.000,0.200,453.000,0.300,319.000,0.500,408.000,1.000,158.000,5.000,0
"04/01/08","18:00:18",18840.000,"cc",28387.445,6.00,6,0.100,17407.000,0.200,464.000,0.300,347.000,0.500,439.000,1.000,183.000,5.000,0
"04/01/08","18:00:24",18593.000,"cc",28339.340,6.00,6,0.100,17194.000,0.200,461.000,0.300,339.000,0.500,427.000,1.000,172.000,5.000,0
"04/01/08","18:00:30",18811.000,"cc",28280.994,6.00,6,0.100,17445.000,0.200,437.000,0.300,347.000,0.500,417.000,1.000,165.000,5.000,0
"04/01/08","18:00:36",18706.000,"cc",28286.393,6.00,6,0.100,17246.000,0.200,477.000,0.300,338.000,0.500,473.000,1.000,172.000,5.000,0
"04/01/08","18:00:42",18865.000,"cc",28229.791,6.00,6,0.100,17375.000,0.200,503.000,0.300,365.000,0.500,468.000,1.000,154.000,5.000,0
"04/01/08","18:00:48",19032.000,"cc",28251.277,6.00,6,0.100,17598.000,0.200,473.000,0.300,345.000,0.500,451.000,1.000,165.000,5.000,0
"04/01/08","18:00:54",18858.000,"cc",28333.018,6.00,6,0.100,17403.000,0.200,482.000,0.300,365.000,0.500,433.000,1.000,175.000,5.000,0
"04/01/08","18:01:00",18931.000,"cc",28274.686,6.00,6,0.100,17596.000,0.200,444.000,0.300,303.000,0.500,448.000,1.000,140.000,5.000,0
"04/01/08","18:01:06",19173.000,"cc",28309.000,6.00,6,0.100,17759.000,0.200,460.000,0.300,344.000,0.500,431.000,1.000,179.000,5.000,0
"04/01/08","18:01:12",18837.000,"cc",28360.145,6.00,6,0.100,17424.000,0.200,434.000,0.300,341.000,0.500,456.000,1.000,182.000,5.000,0
"04/01/08","18:01:18",18547.000,"cc",28318.164,6.00,6,0.100,17200.000,0.200,453.000,0.300,316.000,0.500,395.000,1.000,183.000,5.000,0
"04/01/08","18:01:24",18441.000,"cc",28321.055,6.00,6,0.100,17114.000,0.200,413.000,0.300,334.000,0.500,408.000,1.000,172.000,5.000,0
"04/01/08","18:01:30",18752.000,"cc",28383.930,6.00,6,0.100,17292.000,0.200,495.000,0.300,373.000,0.500,416.000,1.000,176.000,5.000,0
"04/01/08","18:01:36",18826.000,"cc",28242.295,6.00,6,0.100,17451.000,0.200,451.000,0.300,324.000,0.500,431.000,1.000,169.000,5.000,0
"04/01/08","18:01:42",18963.000,"cc",28331.775,6.00,6,0.100,17552.000,0.200,482.000,0.300,333.000,0.500,412.000,1.000,184.000,5.000,0
"04/01/08","18:01:48",19309.000,"cc",28280.047,6.00,6,0.100,17823.000,0.200,464.000,0.300,386.000,0.500,451.000,1.000,185.000,5.000,0
"04/01/08","18:01:54",19085.000,"cc",28372.742,6.00,6,0.100,17651.000,0.200,493.000,0.300,344.000,0.500,427.000,1.000,170.000,5.000,0
"04/01/08","18:02:00",18709.000,"cc",28334.648,6.00,6,0.100,17267.000,0.200,472.000,0.300,363.000,0.500,442.000,1.000,165.000,5.000,0
"04/01/08","18:02:06",18688.000,"cc",28188.604,6.00,6,0.100,17203.000,0.200,454.000,0.300,373.000,0.500,449.000,1.000,209.000,5.000,0
"04/01/08","18:02:12",18661.000,"cc",28347.723,6.00,6,0.100,17164.000,0.200,519.000,0.300,341.000,0.500,461.000,1.000,176.000,5.000,0
"04/01/08","18:02:18",18762.000,"cc",28258.240,6.00,6,0.100,17365.000,0.200,469.000,0.300,347.000,0.500,425.000,1.000,156.000,5.000,0
"04/01/08","18:02:24",18680.000,"cc",28377.143,6.00,6,0.100,17264.000,0.200,453.000,0.300,346.000,0.500,445.000,1.000,172.000,5.000,0
"04/01/08","18:02:30",18992.000,"cc",28341.988,6.00,6,0.100,17569.000,0.200,470.000,0.300,367.000,0.500,418.000,1.000,168.000,5.000,0
"04/01/08","18:02:36",18604.000,"cc",28337.516,6.00,6,0.100,17235.000,0.200,435.000,0.300,339.000,0.500,435.000,1.000,160.000,5.000,0
"04/01/08","18:02:42",19354.000,"cc",28360.039,6.00,6,0.100,17864.000,0.200,508.000,0.300,378.000,0.500,422.000,1.000,182.000,5.000,0
"04/01/08","18:02:48",19105.000,"cc",28323.887,6.00,6,0.100,17733.000,0.200,443.000,0.300,327.000,0.500,446.000,1.000,156.000,5.000,0
"04/01/08","18:02:54",19122.000,"cc",28267.391,6.00,6,0.100,17690.000,0.200,422.000,0.300,361.000,0.500,453.000,1.000,196.000,5.000,0
"04/01/08","18:03:00",18933.000,"cc",28241.570,6.00,6,0.100,17520.000,0.200,464.000,0.300,339.000,0.500,456.000,1.000,154.000,5.000,0
"04/01/08","18:03:06",19264.000,"cc",28263.031,6.00,6,0.100,17823.000,0.200,475.000,0.300,355.000,0.500,442.000,1.000,169.000,5.000,0
"04/01/08","18:03:12",18830.000,"cc",28263.891,6.00,6,0.100,17366.000,0.200,495.000,0.300,387.000,0.500,410.000,1.000,172.000,5.000,0
"04/01/08","18:03:18",18700.000,"cc",28332.803,6.00,6,0.100,17239.000,0.200,456.000,0.300,385.000,0.500,463.000,1.000,157.000,5.000,0
"04/01/08","18:03:24",18531.000,"cc",28412.842,6.00,6,0.100,17134.000,0.200,487.000,0.300,308.000,0.500,427.000,1.000,175.000,5.000,0
"04/01/08","18:03:30",18966.000,"cc",28384.488,6.00,6,0.100,17552.000,0.200,478.000,0.300,361.000,0.500,416.000,1.000,159.000,5.000,0
"04/01/08","18:03:36",18938.000,"cc",28324.176,6.00,6,0.100,17458.000,0.200,492.000,0.300,355.000,0.500,446.000,1.000,187.000,5.000,0
"04/01/08","18:03:42",19181.000,"cc",28207.037,6.00,6,0.100,17643.000,0.200,499.000,0.300,368.000,0.500,482.000,1.000,189.000,5.000,0
"04/01/08","18:03:48",19214.000,"cc",28394.404,6.00,6,0.100,17736.000,0.200,519.000,0.300,353.000,0.500,436.000,1.000,170.000,5.000,0
"04/01/08","18:03:54",18482.000,"cc",28309.293,6.00,6,0.100,17156.000,0.200,449.000,0.300,332.000,0.500,396.000,1.000,149.000,5.000,0
"04/01/08","18:04:00",18811.000,"cc",28354.557,6.00,6,0.100,17459.000,0.200,418.000,0.300,365.000,0.500,407.000,1.000,162.000,5.000,0
"04/01/08","18:04:06",18624.000,"cc",28352.348,6.00,6,0.100,17226.000,0.200,450.000,0.300,335.000,0.500,457.000,1.000,156.000,5.000,0
"04/01/08","18:04:12",18494.000,"cc",28269.918,6.00,6,0.100,17065.000,0.200,453.000,0.300,353.000,0.500,461.000,1.000,162.000,5.000,0
"04/01/08","18:04:18",18391.000,"cc",28234.557,6.00,6,0.100,17061.000,0.200,453.000,0.300,303.000,0.500,406.000,1.000,168.000,5.000,0
"04/01/08","18:04:24",18343.000,"cc",28214.326,6.00,6,0.100,16906.000,0.200,475.000,0.300,365.000,0.500,423.000,1.000,174.000,5.000,0
"04/01/08","18:04:30",17721.000,"cc",28359.443,6.00,6,0.100,16374.000,0.200,443.000,0.300,334.000,0.500,391.000,1.000,179.000,5.000,0
"04/01/08","18:04:36",18205.000,"cc",28252.361,6.00,6,0.100,16865.000,0.200,428.000,0.300,332.000,0.500,427.000,1.000,153.000,5.000,0
"04/01/08","18:04:42",18255.000,"cc",28419.473,6.00,6,0.100,16854.000,0.200,436.000,0.300,351.000,0.500,449.000,1.000,165.000,5.000,0
"04/01/08","18:04:48",18076.000,"cc",28303.309,6.00,6,0.100,16728.000,0.200,444.000,0.300,351.000,0.500,408.000,1.000,145.000,5.000,0
"04/01/08","18:04:54",18100.000,"cc",28376.273,6.00,6,0.100,16699.000,0.200,435.000,0.300,367.000,0.500,433.000,1.000,166.000,5.000,0
"04/01/08","18:05:00",17787.000,"cc",28364.565,6.00,6,0.100,16414.000,0.200,447.000,0.300,309.000,0.500,455.000,1.000,162.000,5.000,0
"04/01/08","18:05:06",17861.000,"cc",28379.625,6.00,6,0.100,16474.000,0.200,471.000,0.300,364.000,0.500,422.000,1.000,130.000,5.000,0
"04/01/08","18:05:12",17712.000,"cc",28327.828,6.00,6,0.100,16300.000,0.200,458.000,0.300,354.000,0.500,426.000,1.000,174.000,5.000,0
"04/01/08","18:05:18",17570.000,"cc",28286.479,6.00,6,0.100,16095.000,0.200,486.000,0.300,360.000,0.500,446.000,1.000,183.000,5.000,0
"04/01/08","18:05:24",17122.000,"cc",28271.523,6.00,6,0.100,15858.000,0.200,423.000,0.300,310.000,0.500,381.000,1.000,150.000,5.000,0
"04/01/08","18:05:30",17078.000,"cc",28413.695,6.00,6,0.100,15807.000,0.200,451.000,0.300,294.000,0.500,367.000,1.000,159.000,5.000,0
"04/01/08","18:05:36",17249.000,"cc",28315.590,6.00,6,0.100,15849.000,0.200,443.000,0.300,366.000,0.500,425.000,1.000,166.000,5.000,0
"04/01/08","18:05:42",17308.000,"cc",28306.979,6.00,6,0.100,16030.000,0.200,416.000,0.300,319.000,0.500,375.000,1.000,168.000,5.000,0
"04/01/08","18:05:48",17499.000,"cc",28305.785,6.00,6,0.100,16170.000,0.200,422.000,0.300,317.000,0.500,429.000,1.000,161.000,5.000,0
"04/01/08","18:05:54",17309.000,"cc",28331.738,6.00,6,0.100,15958.000,0.200,462.000,0.300,332.000,0.500,405.000,1.000,152.000,5.000,0
"04/01/08","18:06:00",17044.000,"cc",28346.553,6.00,6,0.100,15680.000,0.200,446.000,0.300,354.000,0.500,395.000,1.000,169.000,5.000,0
"04/01/08","18:06:06",17534.000,"cc",28326.826,6.00,6,0.100,16218.000,0.200,423.000,0.300,314.000,0.500,420.000,1.000,159.000,5.000,0
"04/01/08","18:06:12",17320.000,"cc",28311.043,6.00,6,0.100,15983.000,0.200,451.000,0.300,344.000,0.500,393.000,1.000,149.000,5.000,0
"04/01/08","18:06:18",17020.000,"cc",28299.627,6.00,6,0.100,15828.000,0.200,378.000,0.300,305.000,0.500,369.000,1.000,140.000,5.000,0
"04/01/08","18:06:24",16963.000,"cc",28470.582,6.00,6,0.100,15631.000,0.200,456.000,0.300,310.000,0.500,387.000,1.000,179.000,5.000,0
"04/01/08","18:06:30",17271.000,"cc",28320.150,6.00,6,0.100,15953.000,0.200,447.000,0.300,338.000,0.500,390.000,1.000,143.000,5.000,0
"04/01/08","18:06:36",16563.000,"cc",28383.023,6.00,6,0.100,15362.000,0.200,375.000,0.300,319.000,0.500,361.000,1.000,146.000,5.000,0
"04/01/08","18:06:42",16477.000,"cc",28283.824,6.00,6,0.100,15337.000,0.200,400.000,0.300,264.000,0.500,332.000,1.000,144.000,5.000,0
"04/01/08","18:06:48",16355.000,"cc",28344.969,6.00,6,0.100,15150.000,0.200,390.000,0.300,292.000,0.500,374.000,1.000,149.000,5.000,0
"04/01/08","18:06:54",16360.000,"cc",28321.383,6.00,6,0.100,15145.000,0.200,400.000,0.300,278.000,0.500,381.000,1.000,156.000,5.000,0
"04/01/08","18:07:00",16445.000,"cc",28304.400,6.00,6,0.100,15241.000,0.200,397.000,0.300,285.000,0.500,375.000,1.000,147.000,5.000,0
"04/01/08","18:07:06",16646.000,"cc",28309.674,6.00,6,0.100,15379.000,0.200,453.000,0.300,313.000,0.500,365.000,1.000,136.000,5.000,0
"04/01/08","18:07:12",16699.000,"cc",28183.854,6.00,6,0.100,15353.000,0.200,433.000,0.300,323.000,0.500,428.000,1.000,162.000,5.000,0
"04/01/08","18:07:18",16571.000,"cc",28254.227,6.00,6,0.100,15312.000,0.200,383.000,0.300,346.000,0.500,391.000,1.000,139.000,5.000,0
"04/01/08","18:07:24",16576.000,"cc",28390.619,6.00,6,0.100,15315.000,0.200,415.000,0.300,297.000,0.500,378.000,1.000,171.000,5.000,0
"04/01/08","18:07:30",16762.000,"cc",28374.205,6.00,6,0.100,15457.000,0.200,425.000,0.300,311.000,0.500,407.000,1.000,162.000,5.000,0
"04/01/08","18:07:36",16659.000,"cc",28398.656,6.00,6,0.100,15406.000,0.200,396.000,0.300,326.000,0.500,388.000,1.000,143.000,5.000,0
"04/01/08","18:07:42",16440.000,"cc",28299.539,6.00,6,0.100,15285.000,0.200,370.000,0.300,295.000,0.500,357.000,1.000,133.000,5.000,0
"04/01/08","18:07:48",16291.000,"cc",28288.231,6.00,6,0.100,15093.000,0.200,403.000,0.300,275.000,0.500,372.000,1.000,148.000,5.000,0
"04/01/08","18:07:54",16129.000,"cc",28335.807,6.00,6,0.100,14873.000,0.200,405.000,0.300,312.000,0.500,389.000,1.000,150.000,5.000,0
"04/01/08","18:08:00",16111.000,"cc",28371.881,6.00,6,0.100,14936.000,0.200,427.000,0.300,265.000,0.500,356.000,1.000,127.000,5.000,0
"04/01/08","18:08:06",16394.000,"cc",28258.578,6.00,6,0.100,15165.000,0.200,401.000,0.300,304.000,0.500,366.000,1.000,158.000,5.000,0
"04/01/08","18:08:12",16242.000,"cc",28367.377,6.00,6,0.100,15085.000,0.200,378.000,0.300,272.000,0.500,374.000,1.000,133.000,5.000,0
"04/01/08","18:08:18",15898.000,"cc",28325.438,6.00,6,0.100,14719.000,0.200,379.000,0.300,293.000,0.500,372.000,1.000,135.000,5.000,0
"04/01/08","18:08:24",15963.000,"cc",28346.758,6.00,6,0.100,14824.000,0.200,360.000,0.300,268.000,0.500,353.000,1.000,158.000,5.000,0
"04/01/08","18:08:30",16015.000,"cc",28348.211,6.00,6,0.100,14811.000,0.200,393.000,0.300,314.000,0.500,347.000,1.000,150.000,5.000,0
"04/01/08","18:08:36",15627.000,"cc",28241.014,6.00,6,0.100,14530.000,0.200,398.000,0.300,255.000,0.500,332.000,1.000,112.000,5.000,0
"04/01/08","18:08:42",16099.000,"cc",28263.150,6.00,6,0.100,14867.000,0.200,423.000,0.300,315.000,0.500,368.000,1.000,126.000,5.000,0
"04/01/08","18:08:48",17302.000,"cc",28342.285,6.00,6,0.100,16017.000,0.200,397.000,0.300,321.000,0.500,373.000,1.000,194.000,5.000,0
"04/01/08","18:08:54",17008.000,"cc",28331.522,6.00,6,0.100,15729.000,0.200,434.000,0.300,329.000,0.500,354.000,1.000,162.000,5.000,0
"04/01/08","18:09:00",17123.000,"cc",28314.217,6.00,6,0.100,15802.000,0.200,421.000,0.300,348.000,0.500,397.000,1.000,155.000,5.000,0
"04/01/08","18:09:06",17358.000,"cc",28264.441,6.00,6,0.100,16038.000,0.200,439.000,0.300,312.000,0.500,415.000,1.000,154.000,5.000,0
"04/01/08","18:09:12",17130.000,"cc",28257.133,6.00,6,0.100,15886.000,0.200,409.000,0.300,294.000,0.500,374.000,1.000,167.000,5.000,0
"04/01/08","18:09:18",17233.000,"cc",28378.238,6.00,6,0.100,15929.000,0.200,434.000,0.300,327.000,0.500,380.000,1.000,163.000,5.000,0
"04/01/08","18:09:24",17379.000,"cc",28391.883,6.00,6,0.100,16087.000,0.200,433.000,0.300,298.000,0.500,382.000,1.000,179.000,5.000,0
"04/01/08","18:09:30",17506.000,"cc",28242.430,6.00,6,0.100,16218.000,0.200,424.000,0.300,306.000,0.500,395.000,1.000,163.000,5.000,0
"04/01/08","18:09:36",17726.000,"cc",28260.389,6.00,6,0.100,16364.000,0.200,450.000,0.300,337.000,0.500,419.000,1.000,156.000,5.000,0
"04/01/08","18:09:42",17934.000,"cc",28264.908,6.00,6,0.100,16527.000,0.200,438.000,0.300,364.000,0.500,447.000,1.000,158.000,5.000,0
"04/01/08","18:09:48",17934.000,"cc",28342.400,6.00,6,0.100,16530.000,0.200,433.000,0.300,360.000,0.500,441.000,1.000,170.000,5.000,0
"04/01/08","18:09:54",17850.000,"cc",28314.096,6.00,6,0.100,16537.000,0.200,417.000,0.300,287.000,0.500,414.000,1.000,195.000,5.000,0
"04/01/08","18:10:00",17955.000,"cc",28315.465,6.00,6,0.100,16617.000,0.200,447.000,0.300,311.000,0.500,388.000,1.000,192.000,5.000,0
"04/01/08","18:10:06",17908.000,"cc",28362.787,6.00,6,0.100,16507.000,0.200,435.000,0.300,344.000,0.500,429.000,1.000,193.000,5.000,0
"04/01/08","18:10:12",18147.000,"cc",28342.016,6.00,6,0.100,16723.000,0.200,450.000,0.300,347.000,0.500,433.000,1.000,194.000,5.000,0
"04/01/08","18:10:18",17811.000,"cc",28409.721,6.00,6,0.100,16477.000,0.200,460.000,0.300,305.000,0.500,408.000,1.000,161.000,5.000,0
"04/01/08","18:10:24",17758.000,"cc",28312.508,6.00,6,0.100,16498.000,0.200,385.000,0.300,352.000,0.500,386.000,1.000,137.000,5.000,0
"04/01/08","18:10:30",17937.000,"cc",28244.732,6.00,6,0.100,16593.000,0.200,420.000,0.300,339.000,0.500,436.000,1.000,149.000,5.000,0
"04/01/08","18:10:36",17822.000,"cc",28402.303,6.00,6,0.100,16442.000,0.200,439.000,0.300,344.000,0.500,427.000,1.000,170.000,5.000,0
"04/01/08","18:10:42",18067.000,"cc",28293.736,6.00,6,0.100,16693.000,0.200,425.000,0.300,330.000,0.500,441.000,1.000,178.000,5.000,0
"04/01/08","18:10:48",18156.000,"cc",28292.568,6.00,6,0.100,16871.000,0.200,436.000,0.300,373.000,0.500,351.000,1.000,125.000,5.000,0
"04/01/08","18:10:54",18155.000,"cc",28310.531,6.00,6,0.100,16771.000,0.200,451.000,0.300,341.000,0.500,431.000,1.000,161.000,5.000,0
"04/01/08","18:11:00",18172.000,"cc",28244.869,6.00,6,0.100,16779.000,0.200,405.000,0.300,349.000,0.500,451.000,1.000,188.000,5.000,0
"04/01/08","18:11:06",17579.000,"cc",28314.443,6.00,6,0.100,16304.000,0.200,431.000,0.300,261.000,0.500,414.000,1.000,169.000,5.000,0
"04/01/08","18:11:12",17989.000,"cc",28340.721,6.00,6,0.100,16582.000,0.200,453.000,0.300,332.000,0.500,447.000,1.000,175.000,5.000,0
"04/01/08","18:11:18",17969.000,"cc",28402.576,6.00,6,0.100,16553.000,0.200,455.000,0.300,329.000,0.500,444.000,1.000,188.000,5.000,0
"04/01/08","18:11:24",17938.000,"cc",28321.512,6.00,6,0.100,16584.000,0.200,435.000,0.300,333.000,0.500,428.000,1.000,158.000,5.000,0
"04/01/08","18:11:30",18065.000,"cc",28393.699,6.00,6,0.100,16699.000,0.200,409.000,0.300,360.000,0.500,417.000,1.000,180.000,5.000,0
"04/01/08","18:11:36",17849.000,"cc",28329.850,6.00,6,0.100,16463.000,0.200,411.000,0.300,358.000,0.500,445.000,1.000,172.000,5.000,0
"04/01/08","18:11:42",18232.000,"cc",28213.787,6.00,6,0.100,16850.000,0.200,426.000,0.300,382.000,0.500,409.000,1.000,165.000,5.000,0
"04/01/08","18:11:48",17857.000,"cc",28239.434,6.00,6,0.100,16575.000,0.200,387.000,0.300,291.000,0.500,428.000,1.000,176.000,5.000,0
"04/01/08","18:11:54",18049.000,"cc",28334.910,6.00,6,0.100,16670.000,0.200,463.000,0.300,316.000,0.500,411.000,1.000,189.000,5.000,0
"04/01/08","18:12:00",17924.000,"cc",28356.322,6.00,6,0.100,16559.000,0.200,428.000,0.300,348.000,0.500,424.000,1.000,165.000,5.000,0
"04/01/08","18:12:06",18217.000,"cc",28263.467,6.00,6,0.100,16674.000,0.200,469.000,0.300,395.000,0.500,486.000,1.000,193.000,5.000,0
"04/01/08","18:12:12",17798.000,"cc",28289.168,6.00,6,0.100,16443.000,0.200,434.000,0.300,324.000,0.500,450.000,1.000,147.000,5.000,0
"04/01/08","18:12:18",18111.000,"cc",28386.469,6.00,6,0.100,16650.000,0.200,490.000,0.300,321.000,0.500,469.000,1.000,181.000,5.000,0
"04/01/08","18:12:24",18005.000,"cc",28338.990,6.00,6,0.100,16659.000,0.200,449.000,0.300,354.000,0.500,389.000,1.000,154.000,5.000,0
"04/01/08","18:12:30",18058.000,"cc",28384.070,6.00,6,0.100,16695.000,0.200,484.000,0.300,337.000,0.500,406.000,1.000,136.000,5.000,0
"04/01/08","18:12:36",18287.000,"cc",28236.738,6.00,6,0.100,16865.000,0.200,468.000,0.300,336.000,0.500,455.000,1.000,163.000,5.000,0
"04/01/08","18:12:42",18357.000,"cc",28189.928,6.00,6,0.100,16895.000,0.200,460.000,0.300,376.000,0.500,452.000,1.000,174.000,5.000,0
"04/01/08","18:12:48",18431.000,"cc",28246.275,6.00,6,0.100,17020.000,0.200,467.000,0.300,357.000,0.500,416.000,1.000,171.000,5.000,0
"04/01/08","18:12:54",18419.000,"cc",28322.012,6.00,6,0.100,16968.000,0.200,443.000,0.300,371.000,0.500,451.000,1.000,186.000,5.000,0
"04/01/08","18:13:00",18101.000,"cc",28320.857,6.00,6,0.100,16767.000,0.200,448.000,0.300,337.000,0.500,391.000,1.000,158.000,5.000,0
"04/01/08","18:13:06",18138.000,"cc",28367.242,6.00,6,0.100,16689.000,0.200,456.000,0.300,383.000,0.500,434.000,1.000,176.000,5.000,0
"04/01/08","18:13:12",17888.000,"cc",28294.410,6.00,6,0.100,16486.000,0.200,473.000,0.300,359.000,0.500,394.000,1.000,176.000,5.000,0
"04/01/08","18:13:18",17721.000,"cc",28370.330,6.00,6,0.100,16393.000,0.200,423.000,0.300,339.000,0.500,404.000,1.000,162.000,5.000,0
"04/01/08","18:13:24",18022.000,"cc",28315.635,6.00,6,0.100,16609.000,0.200,490.000,0.300,343.000,0.500,400.000,1.000,180.000,5.000,0
"04/01/08","18:13:30",17728.000,"cc",28209.037,6.00,6,0.100,16398.000,0.200,451.000,0.300,302.000,0.500,416.000,1.000,161.000,5.000,0
"04/01/08","18:13:36",17839.000,"cc",28202.992,6.00,6,0.100,16412.000,0.200,456.000,0.300,365.000,0.500,427.000,1.000,179.000,5.000,0
"04/01/08","18:13:42",17538.000,"cc",28215.543,6.00,6,0.100,16220.000,0.200,432.000,0.300,326.000,0.500,379.000,1.000,181.000,5.000,0
"04/01/08","18:13:48",18352.000,"cc",28273.281,6.00,6,0.100,17035.000,0.200,425.000,0.300,329.000,0.500,400.000,1.000,163.000,5.000,0
"04/01/08","18:13:54",17912.000,"cc",28291.393,6.00,6,0.100,16601.000,0.200,389.000,0.300,368.000,0.500,397.000,1.000,157.000,5.000,0
"04/01/08","18:14:00",17536.000,"cc",28396.930,6.00,6,0.100,16294.000,0.200,395.000,0.300,285.000,0.500,386.000,1.000,176.000,5.000,0
"04/01/08","18:14:06",18005.000,"cc",28397.895,6.00,6,0.100,16611.000,0.200,463.000,0.300,365.000,0.500,403.000,1.000,163.000,5.000,0
"04/01/08","18:14:12",18402.000,"cc",28329.334,6.00,6,0.100,16964.000,0.200,466.000,0.300,350.000,0.500,427.000,1.000,195.000,5.000,0
"04/01/08","18:14:18",18554.000,"cc",28267.828,6.00,6,0.100,17129.000,0.200,448.000,0.300,367.000,0.500,421.000,1.000,189.000,5.000,0
"04/01/08","18:14:24",18392.000,"cc",28257.875,6.00,6,0.100,16921.000,0.200,458.000,0.300,354.000,0.500,460.000,1.000,199.000,5.000,0
"04/01/08","18:14:30",17911.000,"cc",28241.840,6.00,6,0.100,16617.000,0.200,432.000,0.300,329.000,0.500,384.000,1.000,149.000,5.000,0
"04/01/08","18:14:36",18370.000,"cc",28357.533,6.00,6,0.100,16987.000,0.200,472.000,0.300,330.000,0.500,425.000,1.000,156.000,5.000,0
"04/01/08","18:14:42",18225.000,"cc",28292.518,6.00,6,0.100,16826.000,0.200,444.000,0.300,349.000,0.500,414.000,1.000,192.000,5.000,0
"04/01/08","18:14:48",18465.000,"cc",28396.356,6.00,6,0.100,17063.000,0.200,482.000,0.300,302.000,0.500,441.000,1.000,177.000,5.000,0
"04/01/08","18:14:54",17921.000,"cc",28284.213,6.00,6,0.100,16582.000,0.200,450.000,0.300,324.000,0.500,408.000,1.000,157.000,5.000,0
"04/01/08","18:15:00",18405.000,"cc",28291.461,6.00,6,0.100,17101.000,0.200,411.000,0.300,339.000,0.500,388.000,1.000,166.000,5.000,0
"04/01/08","18:15:06",18427.000,"cc",28313.565,6.00,6,0.100,17036.000,0.200,431.000,0.300,351.000,0.500,417.000,1.000,192.000,5.000,0
"04/01/08","18:15:12",18593.000,"cc",28293.691,6.00,6,0.100,17135.000,0.200,458.000,0.300,393.000,0.500,405.000,1.000,202.000,5.000,0
"04/01/08","18:15:18",18627.000,"cc",28286.111,6.00,6,0.100,17180.000,0.200,466.000,0.300,350.000,0.500,458.000,1.000,173.000,5.000,0
"04/01/08","18:15:24",18619.000,"cc",28326.627,6.00,6,0.100,17217.000,0.200,456.000,0.300,327.000,0.500,447.000,1.000,172.000,5.000,0
"04/01/08","18:15:30",18722.000,"cc",28349.734,6.00,6,0.100,17313.000,0.200,406.000,0.300,374.000,0.500,420.000,1.000,209.000,5.000,0
"04/01/08","18:15:36",18467.000,"cc",28323.945,6.00,6,0.100,16979.000,0.200,524.000,0.300,382.000,0.500,412.000,1.000,170.000,5.000,0
"04/01/08","18:15:42",18530.000,"cc",28317.525,6.00,6,0.100,17122.000,0.200,442.000,0.300,378.000,0.500,415.000,1.000,173.000,5.000,0
"04/01/08","18:15:48",18447.000,"cc",28246.445,6.00,6,0.100,17006.000,0.200,440.000,0.300,351.000,0.500,447.000,1.000,203.000,5.000,0
"04/01/08","18:15:54",18461.000,"cc",28320.514,6.00,6,0.100,17075.000,0.200,467.000,0.300,321.000,0.500,445.000,1.000,153.000,5.000,0
"04/01/08","18:16:00",18047.000,"cc",28311.367,6.00,6,0.100,16651.000,0.200,434.000,0.300,359.000,0.500,419.000,1.000,184.000,5.000,0
"04/01/08","18:16:06",18334.000,"cc",28279.022,6.00,6,0.100,17033.000,0.200,440.000,0.300,306.000,0.500,392.000,1.000,163.000,5.000,0
"04/01/08","18:16:12",17775.000,"cc",28284.615,6.00,6,0.100,16350.000,0.200,446.000,0.300,369.000,0.500,444.000,1.000,166.000,5.000,0
"04/01/08","18:16:18",17660.000,"cc",28304.119,6.00,6,0.100,16352.000,0.200,410.000,0.300,315.000,0.500,405.000,1.000,178.000,5.000,0
"04/01/08","18:16:24",18010.000,"cc",28298.619,6.00,6,0.100,16594.000,0.200,479.000,0.300,348.000,0.500,437.000,1.000,152.000,5.000,0
"04/01/08","18:16:30",18145.000,"cc",28334.977,6.00,6,0.100,16707.000,0.200,421.000,0.300,371.000,0.500,467.000,1.000,179.000,5.000,0
"04/01/08","18:16:36",17978.000,"cc",28368.369,6.00,6,0.100,16498.000,0.200,462.000,0.300,345.000,0.500,469.000,1.000,204.000,5.000,0
"04/01/08","18:16:42",17902.000,"cc",28336.611,6.00,6,0.100,16386.000,0.200,471.000,0.300,385.000,0.500,469.000,1.000,191.000,5.000,0